{"data":{"norad_id":69464,"epoch":"2026-09-20T00:09:01.539648Z","epoch_age_seconds":68080,"freshness":"FRESH","line1":"1 69464U 26127X   26263.00626782  .00018430  00000+0  55519-3 0  9990","line2":"2 69464  53.1582 168.2135 0001041  86.1467 273.9655 15.34402941 16118","mean_motion":15.34402941,"eccentricity":0.0001041,"inclination_deg":53.1582,"raan_deg":168.2135,"arg_perigee_deg":86.1467,"mean_anomaly_deg":273.9655,"bstar":0.00055519,"rev_number":1611,"period_min":93.847578202732,"perigee_km":461.98236839024,"apogee_km":463.40662950832,"semimajor_km":6840.8314989493,"source":"CELESTRAK","updated_at":"2026-09-20T09:00:44.203252Z"}}